This is the latest recevied weather packets stored in our database for station/object LIPZ. If no packets are shown the sender has not sent any weather packets the latest 1 day(s).
| Time | Temp. | Humidity | Pressure | Rain* | Wind** | Luminosity | Snow |
|---|---|---|---|---|---|---|---|
| 1778012104 | 13.89° C | 100% | 1013 hPa | - | 3.13 m/s, 40° | - | - |
| 1778011205 | 13.89° C | 100% | 1013 hPa | - | 3.13 m/s, 40° | - | - |
| 1778010304 | 15° C | 93% | 1013 hPa | - | 3.58 m/s, 40° | - | - |
| 1778008504 | 15° C | 93% | 1013 hPa | - | 3.58 m/s, 40° | - | - |
| 1778007605 | 15° C | 93% | 1013 hPa | - | 3.58 m/s, 40° | - | - |
| 1778004004 | 15° C | 93% | 1013 hPa | - | 4.02 m/s, 40° | - | - |
| 1778003104 | 15° C | 93% | 1013 hPa | - | 3.58 m/s, 40° | - | - |
| 1778002204 | 15° C | 93% | 1013 hPa | - | 3.58 m/s, 40° | - | - |
| 1778000404 | 13.89° C | 93% | 1013 hPa | - | 4.02 m/s, 40° | - | - |
| 1777998605 | 13.89° C | 93% | 1013 hPa | - | 3.58 m/s, 30° | - | - |
| 1777997703 | 15° C | 93% | 1013 hPa | - | 0.45 m/s, 70° | - | - |
| 1777996804 | 15° C | 93% | 1013 hPa | - | 0.45 m/s, 70° | - | - |
| 1777995903 | 16.11° C | 87% | 1013 hPa | - | 0.45 m/s, 90° | - | - |
| 1777994104 | 16.11° C | 87% | 1013 hPa | - | 3.58 m/s, 80° | - | - |
| 1777993205 | 16.11° C | 87% | 1013 hPa | - | 3.58 m/s, 80° | - | - |
| 1777991404 | 16.11° C | 87% | 1013 hPa | - | 3.13 m/s, 90° | - | - |
| 1777990504 | 16.11° C | 87% | 1014 hPa | - | 3.58 m/s, 110° | - | - |
| 1777988703 | 15° C | 87% | 1014 hPa | - | 2.68 m/s, 110° | - | - |
| 1777987805 | 15° C | 87% | 1014 hPa | - | 3.58 m/s, 130° | - | - |
| 1777984205 | 15° C | 87% | 1014 hPa | - | 3.58 m/s, 150° | - | - |
| 1777981503 | 15° C | 87% | 1014 hPa | - | 2.24 m/s, 110° | - | - |
| 1777978805 | 16.11° C | 77% | 1014 hPa | - | 1.34 m/s, 80° | - | - |
| 1777977904 | 17.22° C | 72% | 1014 hPa | - | 1.34 m/s, 90° | - | - |
| 1777977004 | 17.22° C | 72% | 1014 hPa | - | 1.34 m/s, 90° | - | - |
| 1777976104 | 17.22° C | 72% | 1014 hPa | - | 0.89 m/s, 0° | - | - |
* Rain since midnight (hover to see other rain measurements)
** Current wind speed in m/s (hover to see current wind gust speed)